• In Russia
  • List of Countries
  • For 7 days
  • Water Temperature
  • Weather Map
  • Weather Widgets
  • user-avatar
    Login

    Hourly Weather Lowech

    Today, 24 August, Saturday

    Time Temperature Precipitation Wind Pressure Humidity
    00:00 +23°C° 0 mm 1 mps 740 mmHg 54%
    01:00 +23°C° 0 mm 1 mps 740 mmHg 56%
    02:00 +22°C° 0 mm 1 mps 740 mmHg 58%
    03:00 +22°C° 0 mm 1 mps 740 mmHg 61%
    04:00 +22°C° 0 mm 1 mps 740 mmHg 63%
    05:00 +21°C° 0 mm 1 mps 741 mmHg 66%
    06:00 +23°C° 0 mm 1 mps 741 mmHg 62%
    07:00 +25°C° 0 mm 1 mps 741 mmHg 58%
    08:00 +26°C° 0 mm 1 mps 741 mmHg 53%
    09:00 +28°C° 0 mm 2 mps 741 mmHg 49%
    10:00 +30°C° 0 mm 2 mps 741 mmHg 44%
    11:00 +33°C° 0 mm 3 mps 741 mmHg 39%
    12:00 +34°C° 0 mm 3 mps 740 mmHg 37%
    13:00 +34°C° 0 mm 4 mps 740 mmHg 35%
    14:00 +35°C° 0 mm 4 mps 739 mmHg 34%
    15:00 +35°C° 0 mm 4 mps 739 mmHg 34%
    16:00 +35°C° 0 mm 4 mps 739 mmHg 34%
    17:00 +35°C° 0 mm 3 mps 738 mmHg 34%
    18:00 +31°C° 0 mm 3 mps 738 mmHg 38%
    19:00 +29°C° 0 mm 2 mps 738 mmHg 43%
    20:00 +27°C° 0 mm 2 mps 739 mmHg 47%
    21:00 +26°C° 0 mm 2 mps 739 mmHg 48%
    22:00 +25°C° 0 mm 1 mps 739 mmHg 49%
    23:00 +25°C° 0 mm 1 mps 739 mmHg 50%

    Tomorrow, 25 August, Sunday

    Time Temperature Precipitation Wind Pressure Humidity
    00:00 +24°C° 0 mm 1 mps 739 mmHg 52%
    01:00 +24°C° 0 mm 1 mps 739 mmHg 54%
    02:00 +24°C° 0 mm 1 mps 739 mmHg 56%
    03:00 +23°C° 0 mm 1 mps 739 mmHg 58%
    04:00 +23°C° 0 mm 1 mps 739 mmHg 61%
    05:00 +22°C° 0 mm 1 mps 739 mmHg 63%
    06:00 +24°C° 0 mm 1 mps 739 mmHg 59%
    07:00 +26°C° 0 mm 1 mps 739 mmHg 56%
    08:00 +27°C° 0 mm 2 mps 739 mmHg 52%
    09:00 +29°C° 0 mm 3 mps 739 mmHg 47%
    10:00 +31°C° 0 mm 3 mps 739 mmHg 42%
    11:00 +33°C° 0 mm 4 mps 739 mmHg 37%
    12:00 +34°C° 0 mm 4 mps 739 mmHg 34%
    13:00 +35°C° 0 mm 4 mps 738 mmHg 32%
    14:00 +36°C° 0 mm 3 mps 738 mmHg 29%
    15:00 +36°C° 0 mm 3 mps 738 mmHg 30%
    16:00 +35°C° 0 mm 3 mps 737 mmHg 30%
    17:00 +35°C° 0 mm 3 mps 737 mmHg 31%
    18:00 +33°C° 0 mm 3 mps 737 mmHg 36%
    19:00 +30°C° 0 mm 2 mps 737 mmHg 42%
    20:00 +27°C° 0 mm 2 mps 738 mmHg 47%
    21:00 +26°C° 0.1 mm 2 mps 738 mmHg 51%
    22:00 +26°C° 0.1 mm 2 mps 738 mmHg 55%
    23:00 +25°C° 0.1 mm 2 mps 739 mmHg 59%

    Day after tomorrow, 26 August, Monday

    Time Temperature Precipitation Wind Pressure Humidity
    00:00 +24°C° 0.1 mm 2 mps 739 mmHg 63%
    01:00 +23°C° 0.1 mm 1 mps 739 mmHg 66%
    02:00 +22°C° 0.1 mm 1 mps 738 mmHg 70%
    03:00 +22°C° 0 mm 1 mps 739 mmHg 71%
    04:00 +22°C° 0 mm 1 mps 739 mmHg 72%
    05:00 +21°C° 0 mm 1 mps 739 mmHg 74%
    06:00 +23°C° 0 mm 1 mps 739 mmHg 69%
    07:00 +24°C° 0 mm 1 mps 739 mmHg 64%
    08:00 +26°C° 0 mm 1 mps 739 mmHg 60%
    09:00 +28°C° 0 mm 2 mps 739 mmHg 52%
    10:00 +30°C° 0 mm 2 mps 739 mmHg 45%
    11:00 +33°C° 0 mm 3 mps 739 mmHg 38%
    12:00 +34°C° 0 mm 3 mps 739 mmHg 35%
    13:00 +35°C° 0 mm 3 mps 739 mmHg 32%
    14:00 +36°C° 0 mm 3 mps 738 mmHg 30%
    15:00 +34°C° 0 mm 3 mps 738 mmHg 33%
    16:00 +33°C° 0 mm 3 mps 738 mmHg 37%
    17:00 +31°C° 0 mm 3 mps 737 mmHg 41%
    18:00 +29°C° 0 mm 3 mps 738 mmHg 44%
    19:00 +27°C° 0 mm 2 mps 738 mmHg 47%
    20:00 +26°C° 0 mm 1 mps 738 mmHg 50%
    21:00 +25°C° 0 mm 1 mps 738 mmHg 51%
    22:00 +25°C° 0 mm 1 mps 739 mmHg 51%
    23:00 +25°C° 0 mm 1 mps 739 mmHg 52%

    27 August, Tuesday

    Time Temperature Precipitation Wind Pressure Humidity
    00:00 +24°C° 0 mm 1 mps 739 mmHg 54%
    01:00 +24°C° 0 mm 1 mps 739 mmHg 56%
    02:00 +23°C° 0 mm 1 mps 738 mmHg 58%
    03:00 +23°C° 0 mm 1 mps 738 mmHg 60%
    04:00 +22°C° 0 mm 1 mps 739 mmHg 61%
    05:00 +22°C° 0 mm 1 mps 739 mmHg 63%
    06:00 +23°C° 0 mm 1 mps 739 mmHg 59%
    07:00 +24°C° 0 mm 1 mps 739 mmHg 54%
    08:00 +26°C° 0 mm 2 mps 739 mmHg 50%
    09:00 +28°C° 0 mm 2 mps 739 mmHg 43%
    10:00 +29°C° 0 mm 2 mps 739 mmHg 36%
    11:00 +31°C° 0 mm 3 mps 739 mmHg 30%
    12:00 +33°C° 0 mm 3 mps 739 mmHg 29%
    13:00 +33°C° 0 mm 3 mps 739 mmHg 27%
    14:00 +34°C° 0 mm 3 mps 738 mmHg 26%
    15:00 +34°C° 0 mm 3 mps 738 mmHg 27%
    16:00 +34°C° 0 mm 3 mps 738 mmHg 28%
    17:00 +33°C° 0 mm 3 mps 737 mmHg 29%
    18:00 +30°C° 0 mm 2 mps 738 mmHg 34%
    19:00 +28°C° 0 mm 1 mps 738 mmHg 38%
    20:00 +26°C° 0 mm 1 mps 738 mmHg 42%
    21:00 +25°C° 0 mm 1 mps 738 mmHg 44%
    22:00 +24°C° 0 mm 1 mps 738 mmHg 46%
    23:00 +23°C° 0 mm 1 mps 739 mmHg 48%

    28 August, Wednesday

    Time Temperature Precipitation Wind Pressure Humidity
    00:00 +23°C° 0 mm 1 mps 739 mmHg 50%
    01:00 +22°C° 0 mm 1 mps 739 mmHg 52%
    02:00 +22°C° 0 mm 1 mps 739 mmHg 54%
    03:00 +21°C° 0 mm 1 mps 739 mmHg 56%
    04:00 +21°C° 0 mm 1 mps 739 mmHg 57%
    05:00 +20°C° 0 mm 1 mps 739 mmHg 59%
    06:00 +22°C° 0 mm 1 mps 739 mmHg 55%
    07:00 +23°C° 0 mm 2 mps 739 mmHg 52%
    08:00 +25°C° 0 mm 2 mps 740 mmHg 49%
    09:00 +27°C° 0 mm 3 mps 740 mmHg 42%
    10:00 +29°C° 0 mm 3 mps 740 mmHg 35%
    11:00 +32°C° 0 mm 4 mps 739 mmHg 28%
    12:00 +32°C° 0 mm 4 mps 739 mmHg 26%
    13:00 +33°C° 0 mm 4 mps 739 mmHg 24%
    14:00 +34°C° 0 mm 4 mps 738 mmHg 22%
    15:00 +34°C° 0 mm 4 mps 738 mmHg 23%
    16:00 +34°C° 0 mm 3 mps 737 mmHg 23%
    17:00 +33°C° 0 mm 3 mps 737 mmHg 23%
    18:00 +30°C° 0 mm 2 mps 737 mmHg 28%
    19:00 +27°C° 0 mm 2 mps 737 mmHg 32%
    20:00 +24°C° 0 mm 1 mps 737 mmHg 36%
    21:00 +23°C° 0 mm 1 mps 737 mmHg 38%
    22:00 +21°C° 0 mm 2 mps 738 mmHg 40%
    23:00 +21°C° 0 mm 2 mps 738 mmHg 43%

    29 August, Thursday

    Time Temperature Precipitation Wind Pressure Humidity
    00:00 +20°C° 0 mm 2 mps 738 mmHg 44%
    01:00 +20°C° 0 mm 2 mps 738 mmHg 45%
    02:00 +20°C° 0 mm 2 mps 738 mmHg 46%
    03:00 +20°C° 0 mm 1 mps 738 mmHg 46%
    04:00 +20°C° 0 mm 1 mps 738 mmHg 47%
    05:00 +19°C° 0 mm 1 mps 738 mmHg 47%
    06:00 +21°C° 0 mm 1 mps 738 mmHg 44%
    07:00 +22°C° 0 mm 1 mps 738 mmHg 42%
    08:00 +24°C° 0 mm 1 mps 738 mmHg 39%
    09:00 +26°C° 0 mm 2 mps 738 mmHg 33%
    10:00 +28°C° 0 mm 3 mps 738 mmHg 27%
    11:00 +30°C° 0 mm 3 mps 738 mmHg 21%
    12:00 +31°C° 0 mm 3 mps 738 mmHg 19%
    13:00 +31°C° 0 mm 3 mps 737 mmHg 18%
    14:00 +33°C° 0 mm 3 mps 737 mmHg 17%
    15:00 +33°C° 0 mm 3 mps 736 mmHg 18%
    16:00 +33°C° 0 mm 3 mps 736 mmHg 19%
    17:00 +33°C° 0 mm 3 mps 735 mmHg 21%
    18:00 +29°C° 0 mm 3 mps 736 mmHg 25%
    19:00 +26°C° 0 mm 2 mps 736 mmHg 30%
    20:00 +23°C° 0 mm 1 mps 736 mmHg 34%
    21:00 +23°C° 0 mm 2 mps 736 mmHg 37%
    22:00 +21°C° 0 mm 2 mps 736 mmHg 40%
    23:00 +20°C° 0 mm 2 mps 737 mmHg 44%
    Show more